Voltar ao catálogo

TIANXIANG 1

AtivoComunicaçõesVLEO
NORAD 44310·PAYLOAD·🇨🇳 China
Este nome de satélite ainda não foi confirmado por fontes oficiais.

Lançado Jun 5, 2019 de Yellow Sea Launch Area

Loading…

Próximas Passagens (próximas 24 horas)

TLE

AtualizadoSource: Space-Track

Época: Sep 14, 2026, 12:19 UTC

1 44310U 19032A   26257.51334856  .00007745  00000-0  27195-3 0  9994
2 44310  44.9698 287.7525 0009716  44.1738 315.9920 15.29937111400866

Acompanhe TIANXIANG 1 em tempo real com AllMySat

Download on the App Store